Location: La Fredeussais
(48.1780°N, 1.3980°W)
Time: 18:34:32
(UTC+00:00)

SPOT 5 - Pass Details

Date: 09 May 2021
Orbit: 623 x 815 km, 98.2° (Epoch: 18 June)

Event Time Altitude Azimuth Distance (km) Brightness Sun altitude
Exits shadow 21:41:06 27° 166° (SSE) 1,424 3.9 -17.1°
Maximum altitude 21:43:55 87° 254° (WSW) 785 3.0 -17.4°
Drops below altitude 10° 21:49:13 10° 346° (NNW) 2,384 6.7 -17.8°
Sets 21:51:37 0° 346° (NNW) 3,334 7.7 -18.1°
